Location: Barcelona
(41.3830°N, 2.1830°E)
Time: 00:24:37
(UTC+02:00)

ISS - Pass Details

Date: 15 July 2019
Orbit: 409 x 418 km, 51.6° (Epoch: 22 July)

Event Time Altitude Azimuth Distance (km) Brightness Sun altitude
Rises 05:32:09 0° 308° (NW) 2,344 -0.1 -9.8°
Reaches altitude 10° 05:34:19 10° 316° (NW) 1,479 -1.0 -9.5°
Maximum altitude 05:37:30 43° 29° (NNE) 590 -2.4 -9.0°
Drops below altitude 10° 05:40:40 10° 103° (ESE) 1,470 -0.4 -8.5°
Sets 05:42:49 0° 110° (ESE) 2,328 0.5 -8.2°
